Year,Month,Day,Hour,Minute,Value (Times are PST for temperature in C)
2017,05,26,00,00,13.30
2017,05,26,00,01,13.30
2017,05,26,00,02,13.30
2017,05,26,00,03,13.20
2017,05,26,00,04,13.20
2017,05,26,00,05,13.20
2017,05,26,00,06,13.20
2017,05,26,00,07,13.20
2017,05,26,00,08,13.20
2017,05,26,00,09,13.10
2017,05,26,00,10,13.10
2017,05,26,00,11,13.10
2017,05,26,00,12,13.10
2017,05,26,00,13,13.10
2017,05,26,00,14,13.10
2017,05,26,00,15,13.10
2017,05,26,00,16,13.10
2017,05,26,00,17,13.10
2017,05,26,00,18,13.00
2017,05,26,00,19,13.00
2017,05,26,00,20,13.00
2017,05,26,00,21,13.00
2017,05,26,00,22,13.00
2017,05,26,00,23,13.00
2017,05,26,00,24,12.90
2017,05,26,00,25,12.90
2017,05,26,00,26,12.90
2017,05,26,00,27,12.90
2017,05,26,00,28,12.90
2017,05,26,00,29,12.90
2017,05,26,00,30,12.80
2017,05,26,00,31,12.80
2017,05,26,00,32,12.80
2017,05,26,00,33,12.80
2017,05,26,00,34,12.80
2017,05,26,00,35,12.70
2017,05,26,00,36,12.70
2017,05,26,00,37,12.70
2017,05,26,00,38,12.70
2017,05,26,00,39,12.70
2017,05,26,00,40,12.60
2017,05,26,00,41,12.60
2017,05,26,00,42,12.60
2017,05,26,00,43,12.60
2017,05,26,00,44,12.60
2017,05,26,00,45,12.60
2017,05,26,00,46,12.60
2017,05,26,00,47,12.50
2017,05,26,00,48,12.50
2017,05,26,00,49,12.50
2017,05,26,00,50,12.50
2017,05,26,00,51,12.50
2017,05,26,00,52,12.40
2017,05,26,00,53,12.40
2017,05,26,00,54,12.40
2017,05,26,00,55,12.40
2017,05,26,00,56,12.30
2017,05,26,00,57,12.30
2017,05,26,00,58,12.30
2017,05,26,00,59,12.20
2017,05,26,01,00,12.20
2017,05,26,01,01,12.20
2017,05,26,01,02,12.20
2017,05,26,01,03,12.10
2017,05,26,01,04,12.10
2017,05,26,01,05,12.10
2017,05,26,01,06,12.10
2017,05,26,01,07,12.00
2017,05,26,01,08,12.00
2017,05,26,01,09,12.00
2017,05,26,01,10,11.90
2017,05,26,01,11,11.90
2017,05,26,01,12,11.90
2017,05,26,01,13,11.80
2017,05,26,01,14,11.80
2017,05,26,01,15,11.80
2017,05,26,01,16,11.80
2017,05,26,01,17,11.70
2017,05,26,01,18,11.70
2017,05,26,01,19,11.70
2017,05,26,01,20,11.70
2017,05,26,01,21,11.60
2017,05,26,01,22,11.60
2017,05,26,01,23,11.60
2017,05,26,01,24,11.60
2017,05,26,01,25,11.60
2017,05,26,01,26,11.50
2017,05,26,01,27,11.50
2017,05,26,01,28,11.50
2017,05,26,01,29,11.50
2017,05,26,01,30,11.50
2017,05,26,01,31,11.40
2017,05,26,01,32,11.40
2017,05,26,01,33,11.40
2017,05,26,01,34,11.40
2017,05,26,01,35,11.40
2017,05,26,01,36,11.40
2017,05,26,01,37,11.40
2017,05,26,01,38,11.40
2017,05,26,01,39,11.30
2017,05,26,01,40,11.30
2017,05,26,01,41,11.30
2017,05,26,01,42,11.30
2017,05,26,01,43,11.30
2017,05,26,01,44,11.20
2017,05,26,01,45,11.20
2017,05,26,01,46,11.20
2017,05,26,01,47,11.20
2017,05,26,01,48,11.20
2017,05,26,01,49,11.20
2017,05,26,01,50,11.10
2017,05,26,01,51,11.10
2017,05,26,01,52,11.10
2017,05,26,01,53,11.10
2017,05,26,01,54,11.10
2017,05,26,01,55,11.10
2017,05,26,01,56,11.10
2017,05,26,01,57,11.10
2017,05,26,01,58,11.00
2017,05,26,01,59,11.00
2017,05,26,02,00,11.00
2017,05,26,02,01,11.00
2017,05,26,02,02,10.90
2017,05,26,02,03,10.90
2017,05,26,02,04,10.90
2017,05,26,02,05,10.90
2017,05,26,02,06,10.90
2017,05,26,02,07,10.90
2017,05,26,02,08,10.90
2017,05,26,02,09,10.90
2017,05,26,02,10,10.80
2017,05,26,02,11,10.80
2017,05,26,02,12,10.80
2017,05,26,02,13,10.80
2017,05,26,02,14,10.80
2017,05,26,02,15,10.80
2017,05,26,02,16,10.80
2017,05,26,02,17,10.80
2017,05,26,02,18,10.80
2017,05,26,02,19,10.70
2017,05,26,02,20,10.70
2017,05,26,02,21,10.70
2017,05,26,02,22,10.70
2017,05,26,02,23,10.70
2017,05,26,02,24,10.70
2017,05,26,02,25,10.70
2017,05,26,02,26,10.70
2017,05,26,02,27,10.70
2017,05,26,02,28,10.70
2017,05,26,02,29,10.70
2017,05,26,02,30,10.60
2017,05,26,02,31,10.60
2017,05,26,02,32,10.60
2017,05,26,02,33,10.60
2017,05,26,02,34,10.60
2017,05,26,02,35,10.60
2017,05,26,02,36,10.60
2017,05,26,02,37,10.60
2017,05,26,02,38,10.60
2017,05,26,02,39,10.60
2017,05,26,02,40,10.50
2017,05,26,02,41,10.50
2017,05,26,02,42,10.50
2017,05,26,02,43,10.50
2017,05,26,02,44,10.60
2017,05,26,02,45,10.60
2017,05,26,02,46,10.60
2017,05,26,02,47,10.60
2017,05,26,02,48,10.60
2017,05,26,02,49,10.50
2017,05,26,02,50,10.50
2017,05,26,02,51,10.50
2017,05,26,02,52,10.50
2017,05,26,02,53,10.50
2017,05,26,02,54,10.50
2017,05,26,02,55,10.50
2017,05,26,02,56,10.50
2017,05,26,02,57,10.50
2017,05,26,02,58,10.50
2017,05,26,02,59,10.50
2017,05,26,03,00,10.50
2017,05,26,03,01,10.50
2017,05,26,03,02,10.40
2017,05,26,03,03,10.40
2017,05,26,03,04,10.40
2017,05,26,03,05,10.40
2017,05,26,03,06,10.40
2017,05,26,03,07,10.40
2017,05,26,03,08,10.40
2017,05,26,03,09,10.30
2017,05,26,03,10,10.30
2017,05,26,03,11,10.30
2017,05,26,03,12,10.30
2017,05,26,03,13,10.30
2017,05,26,03,14,10.30
2017,05,26,03,15,10.30
2017,05,26,03,16,10.30
2017,05,26,03,17,10.30
2017,05,26,03,18,10.20
2017,05,26,03,19,10.20
2017,05,26,03,20,10.20
2017,05,26,03,21,10.20
2017,05,26,03,22,10.20
2017,05,26,03,23,10.20
2017,05,26,03,24,10.20
2017,05,26,03,25,10.20
2017,05,26,03,26,10.20
2017,05,26,03,27,10.10
2017,05,26,03,28,10.10
2017,05,26,03,29,10.10
2017,05,26,03,30,10.10
2017,05,26,03,31,10.10
2017,05,26,03,32,10.10
2017,05,26,03,33,10.00
2017,05,26,03,34,10.00
2017,05,26,03,35,10.00
2017,05,26,03,36,9.90
2017,05,26,03,37,9.90
2017,05,26,03,38,9.90
2017,05,26,03,39,9.90
2017,05,26,03,40,9.90
2017,05,26,03,41,9.80
2017,05,26,03,42,9.80
2017,05,26,03,43,9.80
2017,05,26,03,44,9.80
2017,05,26,03,45,9.80
2017,05,26,03,46,9.80
2017,05,26,03,47,9.80
2017,05,26,03,48,9.70
2017,05,26,03,49,9.70
2017,05,26,03,50,9.70
2017,05,26,03,51,9.70
2017,05,26,03,52,9.70
2017,05,26,03,53,9.70
2017,05,26,03,54,9.60
2017,05,26,03,55,9.60
2017,05,26,03,56,9.60
2017,05,26,03,57,9.60
2017,05,26,03,58,9.60
2017,05,26,03,59,9.60
2017,05,26,04,00,9.60
2017,05,26,04,01,9.50
2017,05,26,04,02,9.50
2017,05,26,04,03,9.50
2017,05,26,05,04,9.00
2017,05,26,05,05,9.00
2017,05,26,05,06,9.00
2017,05,26,05,07,9.00
2017,05,26,05,08,9.00
2017,05,26,05,09,9.00
2017,05,26,05,10,9.00
2017,05,26,05,11,9.00
2017,05,26,05,12,9.00
2017,05,26,05,13,9.00
2017,05,26,05,14,9.00
2017,05,26,05,15,9.10
2017,05,26,05,16,9.10
2017,05,26,05,17,9.10
2017,05,26,05,18,9.10
2017,05,26,05,19,9.10
2017,05,26,05,20,9.10
2017,05,26,05,21,9.10
2017,05,26,05,22,9.10
2017,05,26,05,23,9.10
2017,05,26,05,24,9.10
2017,05,26,05,25,9.10
2017,05,26,05,26,9.10
2017,05,26,05,27,9.10
2017,05,26,05,28,9.10
2017,05,26,05,29,9.10
2017,05,26,05,30,9.10
2017,05,26,05,31,9.10
2017,05,26,05,32,9.10
2017,05,26,05,33,9.10
2017,05,26,05,34,9.10
2017,05,26,05,35,9.10
2017,05,26,05,36,9.10
2017,05,26,05,37,9.10
2017,05,26,05,38,9.10
2017,05,26,05,39,9.10
2017,05,26,05,40,9.10
2017,05,26,05,41,9.10
2017,05,26,05,42,9.10
2017,05,26,05,43,9.10
2017,05,26,05,44,9.00
2017,05,26,05,45,9.00
2017,05,26,05,46,8.90
2017,05,26,05,47,8.90
2017,05,26,05,48,8.80
2017,05,26,05,49,8.80
2017,05,26,05,50,8.80
2017,05,26,05,51,8.80
2017,05,26,05,52,8.80
2017,05,26,05,53,8.80
2017,05,26,05,54,8.80
2017,05,26,05,55,8.80
2017,05,26,05,56,8.80
2017,05,26,05,57,8.90
2017,05,26,05,58,8.90
2017,05,26,05,59,8.90
2017,05,26,06,00,8.90
2017,05,26,06,01,9.00
2017,05,26,06,02,9.00
2017,05,26,06,03,9.00
2017,05,26,06,04,9.00
2017,05,26,06,05,9.00
2017,05,26,06,06,9.00
2017,05,26,06,07,9.00
2017,05,26,06,08,9.00
2017,05,26,06,09,9.10
2017,05,26,06,10,9.10
2017,05,26,06,11,9.10
2017,05,26,06,12,9.10
2017,05,26,06,13,9.10
2017,05,26,06,14,9.10
2017,05,26,06,15,9.10
2017,05,26,06,16,9.10
2017,05,26,06,17,9.10
2017,05,26,06,18,9.10
2017,05,26,06,19,9.10
2017,05,26,06,20,9.10
2017,05,26,06,21,9.10
2017,05,26,06,22,9.10
2017,05,26,06,23,9.10
2017,05,26,06,24,9.10
2017,05,26,06,25,9.10
2017,05,26,06,26,9.10
2017,05,26,06,27,9.20
2017,05,26,06,28,9.20
2017,05,26,06,29,9.20
2017,05,26,06,30,9.20
2017,05,26,06,31,9.30
2017,05,26,06,32,9.30
2017,05,26,06,33,9.40
2017,05,26,06,34,9.40
2017,05,26,06,35,9.50
2017,05,26,06,36,9.60
2017,05,26,06,37,9.60
2017,05,26,06,38,9.70
2017,05,26,06,39,9.70
2017,05,26,06,40,9.80
2017,05,26,06,41,9.80
2017,05,26,06,42,9.90
2017,05,26,06,43,9.90
2017,05,26,06,44,10.00
2017,05,26,06,45,10.10
2017,05,26,06,46,10.10
2017,05,26,06,47,10.10
2017,05,26,06,48,10.20
2017,05,26,06,49,10.20
2017,05,26,06,50,10.30
2017,05,26,06,51,10.30
2017,05,26,06,52,10.40
2017,05,26,06,53,10.50
2017,05,26,06,54,10.50
2017,05,26,06,55,10.60
2017,05,26,06,56,10.70
2017,05,26,06,57,10.80
2017,05,26,06,58,10.90
2017,05,26,06,59,11.00
2017,05,26,07,00,11.10
2017,05,26,07,01,11.20
2017,05,26,07,02,11.30
2017,05,26,07,03,11.40
2017,05,26,07,04,11.50
2017,05,26,07,05,11.60
2017,05,26,07,06,11.70
2017,05,26,07,07,11.70
2017,05,26,07,08,11.80
2017,05,26,07,09,11.90
2017,05,26,07,10,12.00
2017,05,26,07,11,12.10
2017,05,26,07,12,12.10
2017,05,26,07,13,12.10
2017,05,26,07,14,12.20
2017,05,26,07,15,12.20
2017,05,26,07,16,12.20
2017,05,26,07,17,12.30
2017,05,26,07,18,12.30
2017,05,26,07,19,12.40
2017,05,26,07,20,12.50
2017,05,26,07,21,12.60
2017,05,26,07,22,12.60
2017,05,26,07,23,12.70
2017,05,26,07,24,12.70
2017,05,26,07,25,12.70
2017,05,26,07,26,12.80
2017,05,26,07,27,12.80
2017,05,26,07,28,12.80
2017,05,26,07,29,12.80
2017,05,26,07,30,12.80
2017,05,26,07,31,12.90
2017,05,26,07,32,12.90
2017,05,26,07,33,13.00
2017,05,26,07,34,13.10
2017,05,26,07,35,13.20
2017,05,26,07,36,13.30
2017,05,26,07,37,13.40
2017,05,26,07,38,13.50
2017,05,26,07,39,13.60
2017,05,26,07,40,13.70
2017,05,26,07,41,13.80
2017,05,26,07,42,13.90
2017,05,26,07,43,14.00
2017,05,26,07,44,14.20
2017,05,26,07,45,14.20
2017,05,26,07,46,14.40
2017,05,26,07,47,14.70
2017,05,26,07,48,14.80
2017,05,26,07,49,14.90
2017,05,26,07,50,15.00
2017,05,26,07,51,15.10
2017,05,26,07,52,15.20
2017,05,26,07,53,15.20
2017,05,26,07,54,15.30
2017,05,26,07,55,15.30
2017,05,26,07,56,15.40
2017,05,26,07,57,15.50
2017,05,26,07,58,15.50
2017,05,26,07,59,15.60
2017,05,26,08,00,15.70
2017,05,26,08,01,15.70
2017,05,26,08,02,15.80
2017,05,26,08,03,15.90
2017,05,26,08,04,15.90
2017,05,26,08,05,16.00
2017,05,26,08,06,16.00
2017,05,26,08,07,16.10
2017,05,26,08,08,16.10
2017,05,26,08,09,16.20
2017,05,26,08,10,16.30
2017,05,26,08,11,16.30
2017,05,26,08,12,16.40
2017,05,26,08,13,16.40
2017,05,26,08,14,16.40
2017,05,26,08,15,16.50
2017,05,26,08,16,16.50
2017,05,26,08,17,16.60
2017,05,26,08,18,16.60
2017,05,26,08,19,16.60
2017,05,26,08,20,16.70
2017,05,26,08,21,16.70
2017,05,26,08,22,16.70
2017,05,26,08,23,16.70
2017,05,26,08,24,16.80
2017,05,26,08,25,16.80
2017,05,26,08,26,16.80
2017,05,26,08,27,16.70
2017,05,26,08,28,16.70
2017,05,26,08,29,16.70
2017,05,26,08,30,16.70
2017,05,26,08,31,16.70
2017,05,26,08,32,16.70
2017,05,26,08,33,16.70
2017,05,26,08,34,16.70
2017,05,26,08,35,16.70
2017,05,26,08,36,16.60
2017,05,26,08,37,16.60
2017,05,26,08,38,16.70
2017,05,26,08,39,16.70
2017,05,26,08,40,16.70
2017,05,26,08,41,16.80
2017,05,26,08,42,16.80
2017,05,26,08,43,16.80
2017,05,26,08,44,16.80
2017,05,26,08,45,16.80
2017,05,26,08,46,16.80
2017,05,26,08,47,16.80
2017,05,26,08,48,16.80
2017,05,26,08,49,16.80
2017,05,26,08,50,16.80
2017,05,26,08,51,16.80
2017,05,26,08,52,16.80
2017,05,26,08,53,16.80
2017,05,26,08,54,16.80
2017,05,26,08,55,16.80
2017,05,26,08,56,16.80
2017,05,26,08,57,16.80
2017,05,26,08,58,16.80
2017,05,26,08,59,16.80
2017,05,26,09,00,16.80
2017,05,26,09,01,16.80
2017,05,26,09,02,16.80
2017,05,26,09,03,16.80
2017,05,26,09,04,16.80
2017,05,26,09,05,16.80
2017,05,26,09,06,16.80
2017,05,26,09,07,16.80
2017,05,26,09,08,16.90
2017,05,26,09,09,16.90
2017,05,26,09,10,16.90
2017,05,26,09,11,16.90
2017,05,26,09,12,17.00
2017,05,26,09,13,17.00
2017,05,26,09,14,17.00
2017,05,26,09,15,17.00
2017,05,26,09,16,17.00
2017,05,26,09,17,16.90
2017,05,26,09,18,17.00
2017,05,26,09,19,16.90
2017,05,26,09,20,16.90
2017,05,26,09,21,16.90
2017,05,26,09,22,16.90
2017,05,26,09,23,16.90
2017,05,26,09,24,16.90
2017,05,26,09,25,16.90
2017,05,26,09,26,16.90
2017,05,26,09,27,16.90
2017,05,26,09,28,16.90
2017,05,26,09,29,16.90
2017,05,26,09,30,17.00
2017,05,26,09,31,17.10
2017,05,26,09,32,17.10
2017,05,26,09,33,17.10
2017,05,26,09,34,17.10
2017,05,26,09,35,17.20
2017,05,26,09,36,17.20
2017,05,26,09,37,17.20
2017,05,26,09,38,17.30
2017,05,26,09,39,17.30
2017,05,26,09,40,17.30
2017,05,26,09,41,17.30
2017,05,26,09,42,17.30
2017,05,26,09,43,17.40
2017,05,26,09,44,17.50
2017,05,26,09,45,17.60
2017,05,26,09,46,17.50
2017,05,26,09,47,17.50
2017,05,26,09,48,17.50
2017,05,26,09,49,17.40
2017,05,26,09,50,17.40
2017,05,26,09,51,17.40
2017,05,26,09,52,17.40
2017,05,26,09,53,17.40
2017,05,26,09,54,17.40
2017,05,26,09,55,17.40
2017,05,26,09,56,17.40
2017,05,26,09,57,17.50
2017,05,26,09,58,17.50
2017,05,26,09,59,17.50
2017,05,26,10,00,17.60
2017,05,26,10,01,17.60
2017,05,26,10,02,17.60
2017,05,26,10,03,17.60
2017,05,26,10,04,17.60
2017,05,26,10,05,17.60
2017,05,26,10,06,17.60
2017,05,26,10,07,17.60
2017,05,26,10,08,17.60
2017,05,26,10,09,17.70
2017,05,26,10,10,17.70
2017,05,26,10,11,17.80
2017,05,26,10,12,17.90
2017,05,26,10,13,17.90
2017,05,26,10,14,18.00
2017,05,26,10,15,18.10
2017,05,26,10,16,18.10
2017,05,26,10,17,18.10
2017,05,26,10,18,18.10
2017,05,26,10,19,18.00
2017,05,26,10,20,18.00
2017,05,26,10,21,18.00
2017,05,26,10,22,18.00
2017,05,26,10,23,18.00
2017,05,26,10,24,18.10
2017,05,26,10,25,18.10
2017,05,26,10,26,18.20
2017,05,26,10,27,18.30
2017,05,26,10,28,18.40
2017,05,26,10,29,18.50
2017,05,26,10,30,18.60
2017,05,26,10,31,18.70
2017,05,26,10,32,18.80
2017,05,26,10,33,18.80
2017,05,26,10,34,18.80
2017,05,26,10,35,18.80
2017,05,26,10,36,18.80
2017,05,26,10,37,18.90
2017,05,26,10,38,18.90
2017,05,26,10,39,18.90
2017,05,26,10,40,19.00
2017,05,26,10,41,19.00
2017,05,26,10,42,19.10
2017,05,26,10,43,19.10
2017,05,26,10,44,19.10
2017,05,26,10,45,19.10
2017,05,26,10,46,19.20
2017,05,26,10,47,19.20
2017,05,26,10,48,19.20
2017,05,26,10,49,19.20
2017,05,26,10,50,19.20
2017,05,26,10,51,19.30
2017,05,26,10,52,19.30
2017,05,26,10,53,19.30
2017,05,26,10,54,19.40
2017,05,26,10,55,19.40
2017,05,26,10,56,19.40
2017,05,26,10,57,19.50
2017,05,26,10,58,19.50
2017,05,26,10,59,19.50
2017,05,26,11,00,19.40
2017,05,26,11,01,19.40
2017,05,26,11,02,19.40
2017,05,26,11,03,19.40
2017,05,26,11,04,19.50
2017,05,26,11,05,19.60
2017,05,26,11,06,19.70
2017,05,26,11,07,19.80
2017,05,26,11,08,19.80
2017,05,26,11,09,19.80
2017,05,26,11,10,19.90
2017,05,26,11,11,20.00
2017,05,26,11,12,20.00
2017,05,26,11,13,19.90
2017,05,26,11,14,19.90
2017,05,26,11,15,19.80
2017,05,26,11,16,19.80
2017,05,26,11,17,19.80
2017,05,26,11,18,19.80
2017,05,26,11,19,19.90
2017,05,26,11,20,20.00
2017,05,26,11,21,20.00
2017,05,26,11,22,20.00
2017,05,26,11,23,20.00
2017,05,26,11,24,20.00
2017,05,26,11,25,19.90
2017,05,26,11,26,19.90
2017,05,26,11,27,19.90
2017,05,26,11,28,19.80
2017,05,26,11,29,19.80
2017,05,26,11,30,19.90
2017,05,26,11,31,20.00
2017,05,26,11,32,20.00
2017,05,26,11,33,20.10
2017,05,26,11,34,20.10
2017,05,26,11,35,20.20
2017,05,26,11,36,20.30
2017,05,26,11,37,20.40
2017,05,26,11,38,20.60
2017,05,26,11,39,20.80
2017,05,26,11,40,20.90
2017,05,26,11,41,21.10
2017,05,26,11,42,21.30
2017,05,26,11,43,21.40
2017,05,26,11,44,21.50
2017,05,26,11,45,21.60
2017,05,26,11,46,21.60
2017,05,26,11,47,21.60
2017,05,26,11,48,21.70
2017,05,26,11,49,21.70
2017,05,26,11,50,21.70
2017,05,26,11,51,21.70
2017,05,26,11,52,21.60
2017,05,26,11,53,21.70
2017,05,26,11,54,21.80
2017,05,26,11,55,21.90
2017,05,26,11,56,21.90
2017,05,26,11,57,22.00
2017,05,26,11,58,22.10
2017,05,26,11,59,22.20
2017,05,26,12,00,22.20
2017,05,26,12,01,22.20
2017,05,26,12,02,22.10
2017,05,26,12,03,22.00
2017,05,26,12,04,21.90
2017,05,26,12,05,21.80
2017,05,26,12,06,21.80
2017,05,26,12,07,21.80
2017,05,26,12,08,21.80
2017,05,26,12,09,21.80
2017,05,26,12,10,21.90
2017,05,26,12,11,21.90
2017,05,26,12,12,22.00
2017,05,26,12,13,22.10
2017,05,26,12,14,22.10
2017,05,26,12,15,22.20
2017,05,26,12,16,22.20
2017,05,26,12,17,22.20
2017,05,26,12,18,22.30
2017,05,26,12,19,22.30
2017,05,26,12,20,22.30
2017,05,26,12,21,22.30
2017,05,26,12,22,22.30
2017,05,26,12,23,22.30
2017,05,26,12,24,22.30
2017,05,26,12,25,22.30
2017,05,26,12,26,22.40
2017,05,26,12,27,22.40
2017,05,26,12,28,22.60
2017,05,26,12,29,22.70
2017,05,26,12,30,22.70
2017,05,26,12,31,22.70
2017,05,26,12,32,22.70
2017,05,26,12,33,22.80
2017,05,26,12,34,22.80
2017,05,26,12,35,22.90
2017,05,26,12,36,22.90
2017,05,26,12,37,22.90
2017,05,26,12,38,22.90
2017,05,26,12,39,22.90
2017,05,26,12,40,22.90
2017,05,26,12,41,23.00
2017,05,26,12,42,23.10
2017,05,26,12,43,23.10
2017,05,26,12,44,23.10
2017,05,26,12,45,23.20
2017,05,26,12,46,23.30
2017,05,26,12,47,23.50
2017,05,26,12,48,23.60
2017,05,26,12,49,23.70
2017,05,26,12,50,23.70
2017,05,26,12,51,23.80
2017,05,26,12,52,23.90
2017,05,26,12,53,23.90
2017,05,26,12,54,23.90
2017,05,26,12,55,23.80
2017,05,26,12,56,23.70
2017,05,26,12,57,23.70
2017,05,26,12,58,23.70
2017,05,26,12,59,23.60
2017,05,26,13,00,23.60
2017,05,26,13,01,23.60
2017,05,26,13,02,23.60
2017,05,26,13,03,23.60
2017,05,26,13,04,23.70
2017,05,26,13,05,23.70
2017,05,26,13,06,23.70
2017,05,26,13,07,23.70
2017,05,26,13,08,23.70
2017,05,26,13,09,23.70
2017,05,26,13,10,23.70
2017,05,26,13,11,23.70
2017,05,26,13,12,23.60
2017,05,26,13,13,23.60
2017,05,26,13,14,23.60
2017,05,26,13,15,23.60
2017,05,26,13,16,23.60
2017,05,26,13,17,23.60
2017,05,26,13,18,23.60
2017,05,26,13,19,23.60
2017,05,26,13,20,23.60
2017,05,26,13,21,23.60
2017,05,26,13,22,23.60
2017,05,26,13,23,23.60
2017,05,26,13,24,23.60
2017,05,26,13,25,23.70
2017,05,26,13,26,23.70
2017,05,26,13,27,23.70
2017,05,26,13,28,23.70
2017,05,26,13,29,23.60
2017,05,26,13,30,23.60
2017,05,26,13,31,23.60
2017,05,26,13,32,23.60
2017,05,26,13,33,23.60
2017,05,26,13,34,23.70
2017,05,26,13,35,23.80
2017,05,26,13,36,23.90
2017,05,26,13,37,23.90
2017,05,26,13,38,24.00
2017,05,26,13,39,23.90
2017,05,26,13,40,23.80
2017,05,26,13,41,23.70
2017,05,26,13,42,23.60
2017,05,26,13,43,23.60
2017,05,26,13,44,23.60
2017,05,26,13,45,23.60
2017,05,26,13,46,23.70
2017,05,26,13,47,23.80
2017,05,26,13,48,24.00
2017,05,26,13,49,24.10
2017,05,26,13,50,24.20
2017,05,26,13,51,24.30
2017,05,26,13,52,24.30
2017,05,26,13,53,24.30
2017,05,26,13,54,24.40
2017,05,26,13,55,24.40
2017,05,26,13,56,24.40
2017,05,26,13,57,24.40
2017,05,26,13,58,24.50
2017,05,26,13,59,24.50
2017,05,26,14,00,24.60
2017,05,26,14,01,24.60
2017,05,26,14,02,24.60
2017,05,26,14,03,24.50
2017,05,26,14,04,24.40
2017,05,26,14,05,24.20
2017,05,26,14,06,24.10
2017,05,26,14,07,24.00
2017,05,26,14,08,23.90
2017,05,26,14,09,23.80
2017,05,26,14,10,23.80
2017,05,26,14,11,23.70
2017,05,26,14,12,23.70
2017,05,26,14,13,23.60
2017,05,26,14,14,23.60
2017,05,26,14,15,23.60
2017,05,26,14,16,23.70
2017,05,26,14,17,23.80
2017,05,26,14,18,23.90
2017,05,26,14,19,24.00
2017,05,26,14,20,24.00
2017,05,26,14,21,24.10
2017,05,26,14,22,24.10
2017,05,26,14,23,24.10
2017,05,26,14,24,24.20
2017,05,26,14,25,24.20
2017,05,26,14,26,24.30
2017,05,26,14,27,24.40
2017,05,26,14,28,24.50
2017,05,26,14,29,24.60
2017,05,26,14,30,24.60
2017,05,26,14,31,24.70
2017,05,26,14,32,24.70
2017,05,26,14,33,24.60
2017,05,26,14,34,24.40
2017,05,26,14,35,24.30
2017,05,26,14,36,24.30
2017,05,26,14,37,24.30
2017,05,26,14,38,24.20
2017,05,26,14,39,24.20
2017,05,26,14,40,24.10
2017,05,26,14,41,24.00
2017,05,26,14,42,24.00
2017,05,26,14,43,23.90
2017,05,26,14,44,24.00
2017,05,26,14,45,24.00
2017,05,26,14,46,24.00
2017,05,26,14,47,24.10
2017,05,26,14,48,24.10
2017,05,26,14,49,24.20
2017,05,26,14,50,24.30
2017,05,26,14,51,24.40
2017,05,26,14,52,24.50
2017,05,26,14,53,24.60
2017,05,26,14,54,24.50
2017,05,26,14,55,24.60
2017,05,26,14,56,24.60
2017,05,26,14,57,24.60
2017,05,26,14,58,24.70
2017,05,26,14,59,24.70
2017,05,26,15,00,24.80
2017,05,26,15,01,24.80
2017,05,26,15,02,24.80
2017,05,26,15,03,24.80
2017,05,26,15,04,24.80
2017,05,26,15,05,24.80
2017,05,26,15,06,24.80
2017,05,26,15,07,24.80
2017,05,26,15,08,24.80
2017,05,26,15,09,24.80
2017,05,26,15,10,24.80
2017,05,26,15,11,24.90
2017,05,26,15,12,24.90
2017,05,26,15,13,24.90
2017,05,26,15,14,25.00
2017,05,26,15,15,25.00
2017,05,26,15,16,25.10
2017,05,26,15,17,25.20
2017,05,26,15,18,25.20
2017,05,26,15,19,25.10
2017,05,26,15,20,25.10
2017,05,26,15,21,25.10
2017,05,26,15,22,25.00
2017,05,26,15,23,24.90
2017,05,26,15,24,24.80
2017,05,26,15,25,24.80
2017,05,26,15,26,24.80
2017,05,26,15,27,24.80
2017,05,26,15,28,24.90
2017,05,26,15,29,25.00
2017,05,26,15,30,25.10
2017,05,26,15,31,25.20
2017,05,26,15,32,25.30
2017,05,26,15,33,25.30
2017,05,26,15,34,25.40
2017,05,26,15,35,25.40
2017,05,26,15,36,25.40
2017,05,26,15,37,25.40
2017,05,26,15,38,25.50
2017,05,26,15,39,25.50
2017,05,26,15,40,25.60
2017,05,26,15,41,25.60
2017,05,26,15,42,25.70
2017,05,26,15,43,25.70
2017,05,26,15,44,25.70
2017,05,26,15,45,25.70
2017,05,26,15,46,25.70
2017,05,26,15,47,25.70
2017,05,26,15,48,25.70
2017,05,26,15,49,25.70
2017,05,26,15,50,25.80
2017,05,26,15,51,25.80
2017,05,26,15,52,25.80
2017,05,26,15,53,25.80
2017,05,26,15,54,25.80
2017,05,26,15,55,25.80
2017,05,26,15,56,25.80
2017,05,26,15,57,25.90
2017,05,26,15,58,25.90
2017,05,26,15,59,25.90
2017,05,26,16,00,26.00
2017,05,26,16,01,26.00
2017,05,26,16,02,25.90
2017,05,26,16,03,25.90
2017,05,26,16,04,25.90
2017,05,26,16,05,25.90
2017,05,26,16,06,25.90
2017,05,26,16,07,25.80
2017,05,26,16,08,25.70
2017,05,26,16,09,25.70
2017,05,26,17,04,23.40
2017,05,26,17,05,23.40
2017,05,26,17,06,23.40
2017,05,26,17,07,23.40
2017,05,26,17,08,23.40
2017,05,26,17,09,23.40
2017,05,26,17,10,23.40
2017,05,26,17,11,23.40
2017,05,26,17,12,23.40
2017,05,26,17,13,23.40
2017,05,26,17,14,23.40
2017,05,26,17,15,23.40
2017,05,26,17,16,23.40
2017,05,26,17,17,23.30
2017,05,26,17,18,23.20
2017,05,26,17,19,23.10
2017,05,26,17,20,23.00
2017,05,26,17,21,22.90
2017,05,26,17,22,22.90
2017,05,26,17,23,22.80
2017,05,26,17,24,22.80
2017,05,26,17,25,22.80
2017,05,26,17,26,22.80
2017,05,26,17,27,22.80
2017,05,26,17,28,22.80
2017,05,26,17,29,22.80
2017,05,26,17,30,22.80
2017,05,26,17,31,22.80
2017,05,26,17,32,22.80
2017,05,26,17,33,22.80
2017,05,26,17,34,22.70
2017,05,26,17,35,22.70
2017,05,26,17,36,22.70
2017,05,26,17,37,22.70
2017,05,26,17,38,22.70
2017,05,26,17,39,22.70
2017,05,26,17,40,22.70
2017,05,26,17,41,22.80
2017,05,26,17,42,22.80
2017,05,26,17,43,22.90
2017,05,26,17,44,23.00
2017,05,26,17,45,23.10
2017,05,26,17,46,23.10
2017,05,26,17,47,23.30
2017,05,26,17,48,23.40
2017,05,26,17,49,23.50
2017,05,26,17,50,23.60
2017,05,26,17,51,23.80
2017,05,26,17,52,23.90
2017,05,26,17,53,24.00
2017,05,26,17,54,24.20
2017,05,26,17,55,24.30
2017,05,26,17,56,24.40
2017,05,26,17,57,24.50
2017,05,26,17,58,24.60
2017,05,26,17,59,24.60
2017,05,26,18,00,24.60
2017,05,26,18,01,24.60
2017,05,26,18,02,24.60
2017,05,26,18,03,24.60
2017,05,26,18,04,24.60
2017,05,26,18,05,24.60
2017,05,26,18,06,24.50
2017,05,26,18,07,24.50
2017,05,26,18,08,24.40
2017,05,26,18,09,24.40
2017,05,26,18,10,24.40
2017,05,26,18,11,24.40
2017,05,26,18,12,24.40
2017,05,26,18,13,24.40
2017,05,26,18,14,24.40
2017,05,26,18,15,24.40
2017,05,26,18,16,24.40
2017,05,26,18,17,24.50
2017,05,26,18,18,24.50
2017,05,26,18,19,24.50
2017,05,26,18,20,24.60
2017,05,26,18,21,24.60
2017,05,26,18,22,24.60
2017,05,26,18,23,24.60
2017,05,26,18,24,24.50
2017,05,26,18,25,24.50
2017,05,26,18,26,24.40
2017,05,26,18,27,24.40
2017,05,26,18,28,24.30
2017,05,26,18,29,24.20
2017,05,26,18,30,24.10
2017,05,26,18,31,24.00
2017,05,26,18,32,23.90
2017,05,26,18,33,23.80
2017,05,26,18,34,23.70
2017,05,26,18,35,23.70
2017,05,26,18,36,23.60
2017,05,26,18,37,23.60
2017,05,26,18,38,23.60
2017,05,26,18,39,23.60
2017,05,26,18,40,23.60
2017,05,26,18,41,23.60
2017,05,26,18,42,23.60
2017,05,26,18,43,23.50
2017,05,26,18,44,23.50
2017,05,26,18,45,23.50
2017,05,26,18,46,23.50
2017,05,26,18,47,23.50
2017,05,26,18,48,23.60
2017,05,26,18,49,23.60
2017,05,26,18,50,23.60
2017,05,26,18,51,23.60
2017,05,26,18,52,23.60
2017,05,26,18,53,23.60
2017,05,26,18,54,23.50
2017,05,26,18,55,23.50
2017,05,26,18,56,23.50
2017,05,26,18,57,23.40
2017,05,26,18,58,23.40
2017,05,26,18,59,23.40
2017,05,26,19,00,23.40
2017,05,26,19,01,23.40
2017,05,26,19,02,23.30
2017,05,26,19,03,23.30
2017,05,26,19,04,23.20
2017,05,26,19,05,23.20
2017,05,26,19,06,23.10
2017,05,26,19,07,23.10
2017,05,26,19,08,23.00
2017,05,26,19,09,23.00
2017,05,26,19,10,23.00
2017,05,26,19,11,22.90
2017,05,26,19,12,22.90
2017,05,26,19,13,22.90
2017,05,26,19,14,22.80
2017,05,26,19,15,22.80
2017,05,26,19,16,22.80
2017,05,26,19,17,22.70
2017,05,26,19,18,22.70
2017,05,26,19,19,22.60